Regional Weather Roundup
Issued by NWS Glasgow, MT

Home | Current Version | Previous Version | Text Only | Print | Product List | Glossary On
Versions: 1 2 3 4 5 6 7 8 9 10 11 12 13 14 15 16 17 18 19 20 21 22 23 24 25 26 27 28 29 30 31 32 33 34 35 36 37 38 39 40 41 42 43 44 45 46 47 48 49 50
000
ASUS45 KGGW 292215
RWRGGW
HOURLY REGIONAL WEATHER ROUNDUP FOR NORTHEAST MONTANA
NATIONAL WEATHER SERVICE GLASGOW MONTANA
400 PM MDT FRI MAY 29 2015

NOTE: "FAIR" INDICATES FEW OR NO CLOUDS BELOW 12,000 FEET WITH NO
SIGNIFICANT WEATHER AND/OR OBSTRUCTIONS TO VISISBILITY.

NORTHEAST MONTANA


CITY           SKY/WX    TMP DP  RH WIND       PRES   REMARKS
GLASGOW        SUNNY     59  31  34 CALM      30.27F
PLENTYWOOD       N/A     57  29  34 NE7G17      N/A
WOLF POINT     SUNNY     60  31  33 VRB7      30.29F
JORDAN           N/A     60  33  36 N6        30.27F
WINNETT          N/A     61  40  45 SE3         N/A
SIDNEY         SUNNY     61  30  31 N7        30.28S
GLENDIVE       SUNNY     57  34  41 CALM      30.29S
MALTA            N/A     64  35  34 SE5         N/A
SCOBEY           N/A     56  28  34 CALM      30.26F
OPHEIM           N/A     54  28  37 N3        30.22S

FORT PECK REPORTS


CITY           SKY/WX    TMP DP  RH WIND       PRES   REMARKS
FORT PECK        N/A     56  37  49 S6          N/A
THE PINES        N/A     58  32  37 NE6         N/A

SOUTHEAST MONTANA


CITY           SKY/WX    TMP DP  RH WIND       PRES   REMARKS
BILLINGS       MOSUNNY   58  45  62 E8        30.25F
MILES CITY     SUNNY     61  30  31 NW6       30.26F
BAKER          SUNNY     60  33  36 MISG      30.28S
LIVINGSTON     MOSUNNY   60  47  61 E18       30.20F

CENTRAL MONTANA


CITY           SKY/WX    TMP DP  RH WIND       PRES   REMARKS
HAVRE          PTSUNNY   66  45  46 E8        30.18F
LEWISTOWN      MOSUNNY   62  46  55 E14       30.21F
GREAT FALLS    MOSUNNY   67  50  54 NE13      30.13F
CUT BANK       MOSUNNY   58  45  62 SE16      30.16F
HELENA         MOSUNNY   72  46  39 E15       30.10F
BUTTE          MOSUNNY   66  43  43 SE10G21   30.16F
BOZEMAN        SUNNY     68  48  48 VRB3      30.16F

WESTERN MONTANA


CITY           SKY/WX    TMP DP  RH WIND       PRES   REMARKS
MISSOULA       CLOUDY    73  45  36 SW13      30.05F
KALISPELL      NOT AVBL

NORTH DAKOTA


CITY           SKY/WX    TMP DP  RH WIND       PRES   REMARKS
WILLISTON      SUNNY     59  31  34 VRB5      30.29S
DICKINSON        N/A    N/A N/A N/A MISG      30.26S
MINOT          MOSUNNY   56  33  42 N8        30.26F
BISMARCK       MOSUNNY   58  36  43 N13       30.25F

SOUTHERN SASKATCHEWAN


CITY           SKY/WX    TMP DP  RH WIND       PRES   REMARKS
REGINA         MOSUNNY   55  23  28 NE7G17    30.32F
MOOSE JAW      PTSUNNY   55  23  28 NE10      30.33S
ESTEVAN        MOSUNNY   55  30  38 N7G21     30.29F
SWIFT CURRENT  MOSUNNY   57  27  30 E7        30.27F



USA.gov is the U.S. government's official web portal to all federal, state and local government web resources and services.